Regional Weather Roundup
Issued by NWS

Home | Current Version | Previous Version | Graphics & Text | Print | Product List | Glossary On
Versions: 1 2 3 4 5 6 7 8 9 10 11 12 13 14 15 16 17 18 19 20 21 22 23 24 25 26 27 28 29 30 31 32 33 34 35 36 37 38 39 40 41 42 43 44 45 46 47 48 49 50
000
ASUS45 KTFX 230310
RWRMT
MONTANA REGIONAL WEATHER ROUNDUP
NATIONAL WEATHER SERVICE GREAT FALLS MT
900 PM MDT SAT JUL 22 2017

NOTE: "FAIR" INDICATES FEW OR NO CLOUDS BELOW 12000 FEET WITH NO
SIGNIFICANT WEATHER AND/OR OBSTRUCTIONS TO VISIBILITY.

MTZ001>007-043-230400-
WEST OF THE DIVIDE

CITY           SKY/WX    TMP DP  RH WIND       PRES   REMARKS
KALISPELL      CLEAR     80  45  28 S6        30.05F
MISSOULA       CLEAR     82  42  24 N6        30.07S
BUTTE          CLEAR     77  38  24 NW8       30.22S
MULLAN PASS    CLEAR     66  43  43 NW3       30.29S
ANACONDA         N/A     72  41  33 CALM      30.19R
DEER LODGE       N/A     73  41  31 W8        30.19R
EUREKA           N/A     82  46  28 MISG      30.04S
HAMILTON         N/A     77  48  36 CALM      30.11R
LIBBY            N/A     82  45  26 CALM      30.05S
$$

MTZ008-052>055-230400-
SOUTHWEST MONTANA

CITY           SKY/WX    TMP DP  RH WIND       PRES   REMARKS
BOZEMAN        CLEAR     73  36  25 SE6       30.13S
DILLON         CLEAR     74  39  28 NE6       30.15S
W YELLOWSTONE  CLEAR     70  36  28 SW5       30.28R
ENNIS          CLEAR     73  30  20 NE12      30.22S
THREE FORKS      N/A     78  42  27 CALM      30.11R
$$

MTZ009-010-012-014-046-048-049-054-230400-
EAST SLOPES AND CENTRAL MONTANA

CITY           SKY/WX    TMP DP  RH WIND       PRES   REMARKS
CUT BANK       CLEAR     73  48  41 W7        30.08R
GREAT FALLS    CLEAR     82  38  20 NW3       30.06S
HELENA         CLEAR     83  40  21 W9        30.09R
CHOTEAU          N/A     75  43  31 N8        30.11S
$$

MTZ011-013-016-021-045-047-050-051-230400-
NORTH CENTRAL MONTANA

CITY           SKY/WX    TMP DP  RH WIND       PRES   REMARKS
HAVRE          CLEAR     82  41  23 NE5       29.99S
LEWISTOWN      CLEAR     77  36  22 N3        30.13R
N BAR RANCH      N/A     73  36  25 CALM      30.17R
CHINOOK          N/A     81  54  39 CALM      29.99S
$$

MTZ017>020-022>027-061-062-230400-
NORTHEAST MONTANA

CITY           SKY/WX    TMP DP  RH WIND       PRES   REMARKS
GLASGOW        CLEAR     74  45  35 MISG      30.01R
JORDAN           N/A     78  40  25 NE8       30.03R
SIDNEY         CLEAR     74  46  36 N5        30.02R
WOLF POINT     CLEAR     77  44  30 NE6       30.02R
MALTA          CLEAR     75  50  41 CALM      30.00S
PLENTYWOOD       N/A     72  50  46 CALM      30.04R
POPLAR           N/A     75  46  35 NE7       30.03R
SCOBEY           N/A     68  46  45 CALM      30.05R
$$

MTZ028>42-056>058-230400-
SOUTHCENTRAL AND SOUTHEAST MONTANA

CITY           SKY/WX    TMP DP  RH WIND       PRES   REMARKS
BAKER          CLEAR     73  41  31 N6        30.07S
BILLINGS       PTCLDY    84  28  13 SE5       30.06S
LIVINGSTON     CLEAR     70  36  28 S3        30.14R
MILES CITY     CLEAR     79  38  22 NE9       30.03R
BIG TIMBER     CLEAR     79  30  17 NE5       30.15R
EKALAKA          N/A     73  37  26 N3        30.08R
FORSYTH          N/A     79  37  22 CALM      30.03S
LAUREL           N/A     79  32  18 CALM      30.06S
$$

REGIONAL REPORTS...DAKOTAS

CITY           SKY/WX    TMP DP  RH WIND       PRES   REMARKS
WILLISTON      CLEAR     75  50  41 N8        30.03R
MINOT          CLEAR     65  53  65 NW8       30.00R
DICKINSON      CLEAR     71  49  45 N7        30.03R
BEACH            N/A     68  45  42 CALM      30.09R
CROSBY           N/A     64  55  72 NE3       30.04R
TIOGA            N/A     66  52  59 N7        30.05R
WATFORD CITY     N/A     68  48  49 NE5       30.02R
BISMARCK       CLEAR     74  52  46 N9        29.99R
GRAND FORKS    MOCLDY    69  58  67 NW8       29.88R
FARGO          CLEAR     68  59  73 NW6       29.88R
BUFFALO SD       N/A     76  43  30 N14       30.01R
RAPID CITY     CLEAR     71  45  39 NE8       30.06R
$$

REGIONAL REPORTS...WYOMING/IDAHO/WASHINGTON

CITY           SKY/WX    TMP DP  RH WIND       PRES   REMARKS
GILLETTE       CLEAR     67  36  31 CALM      30.12R
SHERIDAN       CLEAR     72  45  37 VRB5      30.11R
BUFFALO WY     CLEAR     70  39  32 W9        30.19R
CODY           CLEAR     76  35  22 NW3       30.18R
YELLOWSTONE LA   N/A     59  41  51 NW3       30.39R
IDAHO FALLS    CLEAR     70  56  61 W3        30.13S
BOISE          CLEAR     87  37  17 W6        30.00S
SPOKANE        PTCLDY    85  46  25 W7        30.06S
$$

REGIONAL REPORTS...ALBERTA

CITY           SKY/WX    TMP DP  RH WIND       PRES   REMARKS
EDMONTON       CLEAR     72  57  60 CALM      29.93S
CALGARY        MOCLDY    75  45  33 NW10      30.02S
LETHBRIDGE     PTCLDY    77  46  33 W10       30.00R
MEDICINE HAT   PTCLDY    77  46  33 S5        29.97S
WATERTON GATE    N/A     70  45  40 SW3         N/A
CARDSTON         N/A     73  48  40 W1          N/A
$$

REGIONAL REPORTS...SASKATCHEWAN

CITY           SKY/WX    TMP DP  RH WIND       PRES   REMARKS
SWIFT CURRENT  CLEAR     68  50  52 E5        30.03S
REGINA         PTCLDY    70  54  56 N5        30.02R
SASKATOON      PTCLDY    70  55  60 CALM      29.99F
CYPRESS HILLS    N/A     64  45  48 E2          N/A
VAL MARIE        N/A     68  46  45 NE7         N/A
ROCKGLEN         N/A     66  50  55 NE2         N/A
$$



USA.gov is the U.S. government's official web portal to all federal, state and local government web resources and services.